Location: Krasnoyarskiy Pitomnik
(51.1333°N, 71.6167°E)
Time: 12:54:40
(UTC+00:00)

Tiros 1 despin weight - Pass Details

Date: 16 April 2024
Orbit: 578 x 621 km, 48.2° (Epoch: 21 May)

Event Time Altitude Azimuth Distance (km) Brightness Sun altitude
Rises 15:57:02 0° 275° (W) 2,896 ? -15.3°
Reaches altitude 10° 16:00:43 10° 245° (WSW) 1,989 ? -15.7°
Maximum altitude 16:02:29 12° 222° (SW) 1,852 ? -15.9°
Drops below altitude 10° 16:04:15 10° 199° (SSW) 1,986 ? -16.1°
Enters shadow 16:04:56 - 191° (SSW) 2,105 ? -16.2°
